Location: Newark
(44.3100°N, 0.7769°W)
Time: 08:04:59
(UTC+00:00)

Envisat - Pass Details

Date: 24 November 2019
Orbit: 764 x 766 km, 98.1° (Epoch: 14 December)

Event Time Altitude Azimuth Distance (km) Brightness Sun altitude
Rises 06:13:39 0° 21° (NNE) 3,241 6.3 -10.1°
Reaches altitude 10° 06:16:11 10° 31° (NNE) 2,310 5.6 -9.6°
Maximum altitude 06:20:47 34° 96° (E) 1,250 4.9 -8.8°
Drops below altitude 10° 06:25:21 10° 161° (SSE) 2,294 6.1 -8.1°
Sets 06:27:51 0° 170° (S) 3,215 6.7 -7.7°
